Hlavní strana
METAR-TAF:

METAR-TAF

Letiště :

Pontiac Municipal Airport

Pontiac, Illinois, Spojené státy americké

zeměpisná šířka: 40-55-25N, zeměpisná délka: 088-37-31W, výška: 201 m

Aktuální stav počasí

Zpráva byla vytvořena před 26 minutami, v 09:55 UTC
Západní vítr 18 kt s nárazy do 23 kt
Teplota -9°C
Vlhkost vzduchu 73%
Tlak 1018 hPa
Viditelnost: 16.1 km
Jasno

METAR: KPNT 100955Z AUTO 28018G23KT 10SM CLR M09/M13 A3005 RMK AO2 T10861130

Čas: 04:21 (10:21 UTC)


TAF: chybějící

Stav a předpovědi počasí z více než 4 000 letišť (zprávy METAR a TAF).

Červené a žluté tečky na mapě představují dostupné meteorologické stanice.

Když kurzor umístíte na tečku, zobrazí se název stanice.

Pak kliknutím zobrazíte stav a předpověď počasí.

Chcete-li změnit mapu, kliknutím na zelené tlačítko se znaménkem +mapu přiblížíte, kliknutím na zelené tlačítko se znaménkem – mapu oddálíte a kliknutím na zelené šipky přejdete na sousední mapy.


METAR-TAF: